Location: Rounton
(54.4000°N, 1.3500°W)
Time: 05:40:40
(UTC+00:00)

A-11 Canister half - Visible Passes

Search period start: 01 December 2022 00:00
Search period end: 11 December 2022 00:00
Orbit: 1524 x 1685 km, 47.3° (Epoch: 30 November)

Date Brightness Start Highest point End Pass type
(mag) Time Alt. Az. Time Alt. Az. Time Alt. Az.
01 Dec 10.2 02:30:23 32° ESE 02:30:23 32° ESE 02:35:02 10° ESE visible
01 Dec 9.4 04:28:41 44° SW 04:29:35 44° SSW 04:38:30 10° SE visible
01 Dec 10.3 06:26:59 12° W 06:32:38 20° SW 06:39:02 10° S visible
02 Dec 10.5 02:10:03 24° ESE 02:10:03 24° ESE 02:13:22 10° ESE visible
02 Dec 9.4 04:08:21 45° SSW 04:08:21 45° SSW 04:16:55 10° SE visible
02 Dec 10.2 06:06:40 16° W 06:11:02 21° SW 06:17:41 10° S visible
03 Dec 10.8 01:49:45 18° ESE 01:49:45 18° ESE 01:51:42 10° ESE visible
03 Dec 9.6 03:48:04 43° S 03:48:04 43° S 03:55:20 10° SE visible
03 Dec 10.1 05:46:22 19° WSW 05:49:26 23° SW 05:56:18 10° S visible
04 Dec 11.1 01:29:29 12° ESE 01:29:29 12° ESE 01:30:02 10° ESE visible
04 Dec 9.8 03:27:48 37° SSE 03:27:48 37° SSE 03:33:44 10° SE visible
04 Dec 10.1 05:26:07 22° WSW 05:27:50 24° SW 05:34:55 10° S visible
05 Dec 10.1 03:07:35 30° SSE 03:07:35 30° SSE 03:12:08 10° SE visible
05 Dec 10.0 05:05:54 25° SW 05:06:14 25° SW 05:13:29 10° S visible
06 Dec 10.5 02:47:25 23° SE 02:47:25 23° SE 02:50:31 10° SE visible
06 Dec 10.1 04:45:44 25° SSW 04:45:44 25° SSW 04:52:04 10° S visible
07 Dec 10.8 02:27:17 16° SE 02:27:17 16° SE 02:28:54 10° SE visible
07 Dec 10.2 04:25:36 24° SSW 04:25:36 24° SSW 04:30:38 10° S visible
08 Dec 11.1 02:07:11 10° SE 02:07:11 10° SE 02:07:17 10° SE visible
08 Dec 10.4 04:05:31 21° S 04:05:31 21° S 04:09:10 10° SSE visible
09 Dec 10.6 03:45:27 17° S 03:45:27 17° S 03:47:41 10° SSE visible
09 Dec 10.8 18:58:51 10° SSE 18:59:57 12° SSE 18:59:57 12° SSE visible
09 Dec 11.0 20:57:24 10° SSW 20:58:17 13° SSW 20:58:17 13° SSW visible
10 Dec 10.9 03:25:26 12° SSE 03:25:26 12° SSE 03:26:12 10° SSE visible
10 Dec 10.7 18:37:44 10° SSE 18:39:54 13° SE 18:39:54 13° SE visible
10 Dec 10.7 20:35:49 10° SSW 20:38:14 18° SSW 20:38:14 18° SSW visible
